CYYJ

Victoria International

Airport
ICAO code
CYYJ
Summary
ICAO Region
NAM
ICAO Territory
Location

North Saanich, British Columbia,

Coordinates
48° 38' 49" N , 123° 25' 34" W
KCC
Metar
CYYJ 041200Z 25002KT 15SM FEW007 SCT018 BKN068 OVC150 01/01 A2977 RMK SF1SC3AC2AC3 SF TR SLP084

Description

Victoria International Airport serves Victoria, British Columbia, Canada. It is 12 nm north northwest of the city, in North Saanich, quite close to the town of Sidney on the Saanich Peninsula.

Climatology

Temperate Marine climate/Oceanic climate (Köppen climate classification Cfb). Moderately cool summer and comparatively warm winter.

Runways

Designator Length Width Surface Rops
13/31 1525 61 ASP Yes/Yes
2/20 1532 61 ASP Yes/Yes
9/27 2134 61 ASP Yes/Yes

Airport map

Aerial View

SKYbrary Partners:

Safety knowledge contributed by: